www.pogodaiklimat.ru
ПОГОДА в Ittoqqortoormiit
Время
(UTC), дата
10 10.10
11 10.10
12 10.10
13 10.10
14 10.10
15 10.10
16 10.10
17 10.10
18 10.10
19 10.10
20 10.10
21 10.10
22 10.10
23 10.10
00 11.10
01 11.10
02 11.10
03 11.10
04 11.10
05 11.10
06 11.10
07 11.10
08 11.10
09 11.10
10 11.10
11 11.10
12 11.10
13 11.10
14 11.10
15 11.10
16 11.10
17 11.10
18 11.10
19 11.10
20 11.10
21 11.10
22 11.10
23 11.10
00 12.10
01 12.10
02 12.10
03 12.10
04 12.10
05 12.10
06 12.10
07 12.10
08 12.10
09 12.10
10 12.10
11 12.10
12 12.10
13 12.10
14 12.10
15 12.10
16 12.10
17 12.10
18 12.10
19 12.10
20 12.10
21 12.10
22 12.10
23 12.10
00 13.10
01 13.10
02 13.10
03 13.10
04 13.10
05 13.10
06 13.10
07 13.10
08 13.10
09 13.10
10 13.10
11 13.10
12 13.10
13 13.10
14 13.10
15 13.10
16 13.10
17 13.10
18 13.10
19 13.10
20 13.10
21 13.10
22 13.10
23 13.10
00 14.10
01 14.10
02 14.10
03 14.10
04 14.10
05 14.10
06 14.10
07 14.10
08 14.10
09 14.10
10 14.10
11 14.10
12 14.10
13 14.10
14 14.10
15 14.10
16 14.10
17 14.10
18 14.10
19 14.10
20 14.10
21 14.10
22 14.10
23 14.10
00 15.10
01 15.10
02 15.10
03 15.10
04 15.10
05 15.10
06 15.10
07 15.10
08 15.10
09 15.10
10 15.10
11 15.10
12 15.10
13 15.10
14 15.10
15 15.10
16 15.10
17 15.10
18 15.10
19 15.10
20 15.10
21 15.10
22 15.10
23 15.10
00 16.10
01 16.10
02 16.10
03 16.10
04 16.10
05 16.10
06 16.10
07 16.10
08 16.10
09 16.10
10 16.10
11 16.10
12 16.10
13 16.10
Ветер
(напр.,м/с)
Видим. Явления Облачность Т
(С)
Тd
(С)
f
(%)
Тe
(С)
Тes
(С)
Комфортность P
(гПа)
Po
(гПа)
Тmin
(С)
Tmax
(С)
R
(мм)
R24
(мм)
S
(см)
ЮЗ 1 50 км 9/9 1170 м
[]
-0.2 -7.7 57 -2 -2 по сезону 1016.5 1007.4
С 3 50 км 9/9 1230 м
[]
+0.8 -7.2 55 -3 -3 прохладно 1017.0 1008.0
СВ 6 50 км 9/9 1170 м
[]
+0.4 -5.2 66 -6 -6 холодно 1017.5 1008.5
СВ 6 50 км 6/6 1230 м
[]
+0.1 -8.3 53 -6 -6 холодно 1017.8 1008.8
З 2 50 км 1/0
[]
-0.2 -7.1 60 -3 -3 прохладно 1018.0 1009.0
СВ 6 50 км 9/9 1500 м
[]
-0.1 -8.2 54 -6 -6 холодно 1018.1 1009.0
СЗ 2 50 км 1/1 1500 м
[]
-0.1 -7.8 56 -3 -2 прохладно 1018.2 1009.2
СЗ 1 50 км ясно -0.1 -8.5 53 -2 -1 по сезону 1018.5 1009.4
СВ 5 50 км 1/0
[]
-0.3 -12.5 39 -6 -6 холодно 1018.5 1009.4 -0.8 +1.1
С 1 50 км 6/0
[]
-1.1 -11.2 46 -2 -2 по сезону 1018.4 1009.3
СВ 2 50 км 1/0
[]
-1.8 -10.1 53 -4 -4 прохладно 1018.1 1009.0
С 3 50 км 1/0
[]
-2.3 -10.5 53 -7 -7 холодно 1018.0 1008.9
СВ 3 50 км 6/0
[]
-2.4 -8.7 62 -7 -7 холодно 1017.8 1008.6
СВ 3 50 км 6/0
[]
-1.9 -8.0 63 -7 -7 холодно 1017.7 1008.6
СВ 2 50 км 9/0
[]
-1.8 -8.6 60 -5 -5 холодно 1017.6 1008.5
СВ 2 50 км 9/0
[]
-1.2 -9.7 52 -4 -4 прохладно 1017.7 1008.6
С 5 45 км 4/0
[]
-2.2 -6.1 75 -9 -9 очень
холодно
1017.5 1008.3
С 1 50 км 6/0
[]
-1.1 -7.9 60 -3 -3 прохладно 1017.3 1008.2
С 4 50 км ясно -2.5 -5.9 77 -8 -8 очень
холодно
1017.2 1008.1
С 4 50 км ясно -2.7 -6.3 76 -9 -9 очень
холодно
1017.2 1008.1
СВ 2 50 км ясно -2.0 -7.7 65 -5 -5 холодно 1017.3 1008.1 -2.9 -0.1
СВ 3 50 км ясно -2.5 -8.0 66 -7 -7 холодно 1017.2 1008.1
СВ 4 50 км ясно -3.2 -8.9 65 -9 -9 очень
холодно
1017.1 1008.0
СВ 2 50 км ясно -2.7 -9.7 59 -6 -6 холодно 1017.0 1007.9
С 4 50 км ясно -2.4 -10.9 52 -7 -7 холодно 1016.6 1007.4
СВ 2 50 км ясно -1.9 -11.4 48 -5 -5 холодно 1016.3 1007.2
Ю 1 50 км ясно -0.5 -9.6 50 -0 0 по сезону 1015.8 1006.7
ЮВ 1 50 км ясно +0.3 -9.1 49 +1 +1 по сезону 1015.2 1006.2
Ю 1 45 км ясно +1.5 -9.5 44 +2 +3 по сезону 1014.5 1005.5
С 3 50 км ясно +1.4 -12.6 34 -2 -1 по сезону 1013.8 1004.8
СЗ 5 50 км ясно +0.9 -9.7 45 -4 -4 прохладно 1013.3 1004.3
СЗ 6 50 км ясно +0.6 -11.2 41 -5 -5 холодно 1012.6 1003.6
СВ 3 50 км ясно -0.6 -12.1 41 -4 -4 прохладно 1012.5 1003.5 -3.6 +1.8
ЮВ 1 50 км ясно -1.2 -9.6 53 -1 -1 по сезону 1012.3 1003.2
СВ 2 50 км ясно -2.0 -10.6 52 -5 -5 холодно 1011.7 1002.7
СВ 3 50 км ясно -2.2 -10.8 52 -6 -6 холодно 1011.3 1002.2
СВ 2 50 км ясно -2.7 -7.5 70 -7 -7 холодно 1011.0 1001.9
С 3 50 км ясно -3.1 -9.7 60 -7 -7 холодно 1010.6 1001.5
СВ 3
{19}
50 км ясно -3.3 -8.6 67 -8 -8 очень
холодно
1010.2 1001.1
СВ 3 50 км ясно -3.4 -8.6 67 -8 -8 очень
холодно
1009.9 1000.8
СВ 3 50 км ясно -3.5 -7.7 73 -8 -8 очень
холодно
1009.2 1000.1
С 3 50 км ясно -3.8 -8.0 73 -8 -8 очень
холодно
1008.5 999.4
СВ 3 50 км ясно -3.9 -7.3 77 -9 -9 очень
холодно
1008.2 999.1
СВ 4 50 км ясно -4.5 -7.4 80 -10 -10 очень
холодно
1007.8 998.7
СВ 4 50 км ясно -4.9 -7.4 83 -11 -11 очень
холодно
1007.7 998.6 -5.0 -0.1
СВ 3 50 км ясно -4.4 -6.9 83 -9 -9 очень
холодно
1007.7 998.6
СВ 4 50 км 9/9 300 м
[]
-4.7 -6.8 85 -11 -11 очень
холодно
1007.7 998.6
С 3 50 км 6/6 270 м
[]
-4.4 -6.2 87 -10 -10 очень
холодно
1007.6 998.5
С 4 45 км 6/6 240 м
[]
-4.6 -6.0 90 -11 -11 очень
холодно
1007.6 998.5
СВ 4 50 км 4/4 240 м
[]
-3.5 -5.4 87 -9 -9 очень
холодно
1007.7 998.6
СВ 2 50 км 4/4 240 м
[]
-3.0 -5.3 84 -7 -7 холодно 1007.7 998.6
В 1 40 км ясно -2.1 -4.6 83 -4 -4 прохладно 1007.7 998.6
Ю 1 45 км 1/0
[]
-1.6 -4.6 80 -4 -3 прохладно 1007.7 998.7
ЮЗ 1 40 км ясно -1.3 -5.0 76 -2 -1 по сезону 1007.7 998.6
Ю 2 45 км 1/1 330 м
[]
-1.7 -4.9 79 -5 -5 холодно 1007.6 998.6
В 2 50 км 4/4 330 м
[]
-1.9 -4.9 80 -5 -5 холодно 1007.8 998.8
СВ 1 50 км ясно -3.1 -5.4 84 -5 -5 холодно 1008.2 999.1 -4.9 -1.2
СВ 2 50 км ясно -3.9 -6.6 81 -8 -8 очень
холодно
1008.5 999.4
СВ 3 50 км ясно -4.5 -7.6 79 -9 -9 очень
холодно
1008.9 999.8
СВ 3
{13}
50 км ясно -4.8 -7.4 82 -10 -10 очень
холодно
1009.3 1000.2
СВ 3 50 км ясно -4.7 -7.0 84 -10 -10 очень
холодно
1009.5 1000.4
С 3 50 км 1/1 300 м
[]
-4.8 -7.3 83 -10 -10 очень
холодно
1009.7 1000.6
СВ 3
{13}
50 км 9/9 300 м
[]
-4.6 -6.8 85 -10 -10 очень
холодно
1010.1 1001.0
СВ 3 50 км 9/9 330 м
[]
-4.3 -6.3 86 -10 -10 очень
холодно
1010.6 1001.4
СВ 2 50 км 10/10 360 м
[]
-4.2 -6.0 87 -8 -8 очень
холодно
1010.6 1001.5
СВ 2 50 км 6/6 330 м
[]
-4.0 -6.2 85 -8 -8 очень
холодно
1010.6 1001.5
С 3 50 км 4/4 330 м
[]
-4.9 -7.1 85 -10 -10 очень
холодно
1011.0 1001.8
СВ 3 50 км 9/9 360 м
[]
-4.4 -6.6 85 -9 -9 очень
холодно
1011.3 1002.1
СВ 3 50 км ясно -5.3 -8.0 81 -11 -11 очень
холодно
1011.7 1002.5 -5.5 -3.1
СВ 3 50 км ясно -5.2 -8.4 78 -10 -10 очень
холодно
1012.1 1002.9
СВ 5 50 км ясно -5.1 -8.7 76 -12 -12 очень
холодно
1012.6 1003.4
СВ 2-17
{17}
50 км 4/4 630 м
[]
-4.6 -7.4 81 -8 -8 очень
холодно
1013.1 1004.0
Ю 1 50 км 10/10 500 м
[]
-3.8 -6.2 83 -6 -6 холодно 1013.5 1004.4
Ю 1 50 км 4/4 600 м
[]
-3.4 -6.3 80 -4 -4 прохладно 1013.9 1004.8
СВ 1
{17}
40 км осадки {ливн. осадки} 10/10 570 м
[]
-2.8 -6.4 76 -3 -3 прохладно 1014.3 1005.2
СЗ 2 50 км в посл. час зёрна {ливн. осадки} 9/9 570 м
[]
-2.2 -5.0 81 -6 -6 холодно 1014.6 1005.5
СВ 4 50 км 9/9 540 м
[]
-1.8 -4.8 80 -8 -8 очень
холодно
1014.9 1005.8
СВ 4 50 км {ливн. осадки, снег} 10/10 870 м
[]
-1.8 -5.0 79 -7 -7 холодно 1014.8 1005.7
СВ 2 50 км 9/9 840 м
[]
-1.9 -4.7 81 -6 -6 холодно 1014.9 1005.8
СВ 3 30 км 10/10 750 м
[]
-2.0 -5.3 78 -6 -6 холодно 1015.2 1006.1
С 3 50 км {ливн. осадки, снег} 10/10 1000 м
[]
-2.3 -5.0 82 -7 -7 холодно 1015.5 1006.4 -5.5 -1.5
СЗ 1 50 км 10/10 1140 м
[]
-2.3 -4.9 82 -5 -5 холодно 1015.8 1006.6
СВ 4 50 км 10/10 1350 м
[]
-2.3 -5.4 79 -8 -8 очень
холодно
1015.9 1006.8
СВ 5 50 км 1/1 1380 м
[]
-2.8 -6.8 74 -9 -9 очень
холодно
1015.9 1006.7
0 50 км ясно -3.3 -6.9 76 1016.0 1006.8
0 50 км ясно -3.9 -7.5 76 1016.1 1006.9
0 50 км ясно -3.3 -7.7 72 1016.2 1007.0
0 50 км ясно -3.3 -7.8 71 1016.3 1007.1
0 50 км ясно -3.6 -8.1 71 1016.4 1007.2
0 50 км ясно -3.2 -7.7 71 1016.3 1007.1
0 50 км ясно -3.5 -8.3 69 1016.3 1007.1
0 50 км ясно -3.7 -7.8 73 1016.1 1007.0
0 50 км ясно -4.6 -8.2 76 1016.2 1007.0 -4.6 -2.1
0 50 км ясно -3.8 -8.2 71 1016.3 1007.1
0 50 км ясно -4.4 -8.4 74 1016.5 1007.3
0 50 км ясно -4.6 -8.5 74 1016.6 1007.4
СВ 5 50 км ясно -5.3 -8.6 78 -12 -12 очень
холодно
1016.8 1007.5
С 4 50 км ясно -4.5 -8.6 73 -11 -11 очень
холодно
1016.6 1007.4
СВ 4 50 км ясно -3.6 -8.4 69 -10 -9 очень
холодно
1016.2 1007.1
СВ 4 50 км ясно -3.4 -8.6 67 -9 -9 очень
холодно
1016.0 1006.9
СВ 3 50 км 1/0
[]
-3.0 -8.9 64 -7 -7 холодно 1016.0 1006.9
СВ 3 50 км ясно -2.7 -8.9 62 -7 -7 холодно 1015.8 1006.7
СВ 4 50 км ясно -3.1 -8.5 66 -9 -8 очень
холодно
1015.5 1006.4
СВ 4 50 км ясно -3.3 -8.2 69 -9 -9 очень
холодно
1015.3 1006.2
СВ 4 50 км 1/0
[]
-3.7 -8.6 69 -10 -10 очень
холодно
1015.4 1006.2
СВ 2 50 км ясно -4.3 -8.8 71 -8 -8 очень
холодно
1015.5 1006.4
СВ 5 н/о ясно -4.4 -8.5 73 -11 -11 очень
холодно
1015.3 1006.1
СВ 3 50 км ясно -4.3 -9.0 70 -10 -10 очень
холодно
1015.2 1006.0
С 5 50 км 1/0
[]
-4.8 -9.3 71 -12 -12 очень
холодно
1015.2 1006.0
С 4 50 км 1/0
[]
-5.3 -9.5 72 -12 -12 очень
холодно
1015.2 1006.0
СВ 5 50 км ясно -5.2 -9.3 73 -12 -12 очень
холодно
1015.3 1006.1
С 4 50 км ясно -5.5 -9.9 71 -12 -12 очень
холодно
1015.4 1006.2
С 3 50 км ясно -5.6 -10.8 67 -11 -11 очень
холодно
1015.3 1006.1
СВ 2 50 км ясно -5.4 -10.7 66 -9 -9 очень
холодно
1015.7 1006.4
СВ 3 50 км ясно -6.0 -10.4 71 -11 -11 очень
холодно
1015.6 1006.4
СВ 4 50 км ясно -6.3 -10.9 70 -12 -12 очень
холодно
1015.9 1006.6
СВ 4 50 км ясно -6.0 -11.7 64 -12 -12 очень
холодно
1016.0 1006.8 -6.5 -3.6
СВ 2 50 км ясно -6.0 -12.6 60 -10 -10 очень
холодно
1016.3 1007.1
СВ 2 50 км ясно -5.9 -13.0 57 -10 -10 очень
холодно
1016.8 1007.6
СВ 3 50 км ясно -5.9 -10.1 72 -11 -11 очень
холодно
1017.3 1008.1
СВ 1 50 км ясно -4.9 -11.0 62 -7 -7 холодно 1018.0 1008.8
СВ 2 50 км ясно -5.8 -12.3 60 -10 -10 очень
холодно
1018.6 1009.3
С 4 50 км 1/0
[]
-4.5 -10.4 63 -10 -10 очень
холодно
1018.6 1009.4
СВ 2 50 км 1/0
[]
-4.6 -9.5 69 -9 -8 очень
холодно
1018.8 1009.6
СВ 1 50 км 9/0
[]
-3.7 -10.6 59 -6 -5 холодно 1018.9 1009.8
В 1 14 км 9/0
[]
-3.2 -8.9 65 -4 -3 прохладно 1019.1 1009.9
ЮВ 1 16 км 9/0
[]
-3.0 -7.8 69 -3 -3 прохладно 1018.9 1009.8
СВ 1 50 км 9/0
[]
-3.0 -9.8 59 -3 -3 прохладно 1019.1 1009.9
Ю 1 50 км 9/0
[]
-2.9 -10.2 57 -3 -3 прохладно 1019.3 1010.2 -6.4 -2.7
СВ 1 50 км 9/0
[]
-4.0 -10.0 63 -6 -6 холодно 1019.8 1010.6
СВ 2 50 км 9/0
[]
-4.1 -9.8 64 -7 -7 холодно 1020.0 1010.8
СВ 2 50 км 9/0
[]
-3.7 -9.4 65 -7 -7 холодно 1020.3 1011.1
СВ 3 50 км 9/0
[]
-3.7 -9.2 66 -8 -8 очень
холодно
1020.3 1011.1
СВ 3 50 км 9/0 2000 м
[]
-3.6 -9.4 64 -9 -9 очень
холодно
1020.3 1011.1
СЗ 1 50 км 9/0 2000 м
[]
-3.1 -8.5 66 -3 -3 прохладно 1020.4 1011.2
СВ 3 50 км 9/0 2000 м
[]
-3.4 -8.2 69 -8 -8 очень
холодно
1020.3 1011.1
С 1 50 км 9/0
[]
-3.0 -8.5 66 -5 -5 холодно 1020.1 1010.9
СВ 1 50 км 9/9 1230 м
[]
-3.3 -8.0 70 -5 -5 холодно 1020.0 1010.8
СВ 2 50 км 9/9 1230 м
[]
-3.1 -7.9 69 -6 -6 холодно 1020.0 1010.8
СВ 1 50 км 9/9 1170 м
[]
-2.9 -8.1 67 -5 -5 холодно 1019.7 1010.5
СВ 1
{8}
50 км 9/0
[]
-2.1 -9.1 59 -2 -2 по сезону 1019.8 1010.6 -4.5 -2.0
СВ 2 50 км 9/0
[]
-2.8 -9.0 62 -6 -6 холодно 1019.6 1010.4
СВ 3 50 км 9/0 2000 м
[]
-2.9 -8.4 66 -7 -7 холодно 1019.8 1010.6
С 1 50 км 9/9 1500 м
[]
-2.4 -8.2 64 -4 -4 прохладно 1019.7 1010.5
ЮВ 1 50 км 9/9 1500 м
[]
-2.3 -8.1 64 -4 -4 прохладно 1019.4 1010.3
В 1 50 км 9/9 1320 м
[]
-2.0 -7.1 68 -4 -4 прохладно 1019.0 1009.9
СВ 1 50 км 9/9 1350 м
[]
-1.6 -6.6 69 -3 -3 прохладно 1018.7 1009.6
Ю 1 50 км 9/9 1300 м
[]
-0.6 -7.1 61 -2 -2 по сезону 1018.3 1009.2
Местоположение метеостанции Ittoqqortoormiit (Гренландия): широта 70.48 долгота -21.95 высота над уровнем моря 69 м.
В архиве по умолчанию представлена погода в Ittoqqortoormiit за последнюю неделю. Архивные данные за месяц целиком и за предыдущие месяцы, начиная с января 2011 года, Вы можете получить, выбрав интересующий диапазон дат из раскрывающегося списка и нажав кнопку "Найти!".
*Определитесь, кто Вы:
Внимание! Время в таблицах - всемирное. Для получения местного времени необходимо прибавить поправку, которая равна -1 ч.
Смотрите также архив погоды в соседних городах и на ближайших метеорологических станциях:
Партнеры нашего сайта:      
Пояснения к столбцам:
  • Ветер - указаны скорость ветра в м/с - средняя за 10 мин, порывы в срок и между сроками (в фигурных скобках) и направление, откуда дует ветер: С - северный,
  • СВ - северо-восточный, В - восточный, ЮВ - юго-восточный, Ю - южный, ЮЗ - юго-западный, З - западный, СЗ - северо-западный.
  • Видимость - горизонтальная дальность видимости в метрах или километрах. При видимости от 1 до 10 км при отсутствии осадков обычно наблюдается дымка, при ухудшении видимости до 1 км и менее - туман. В сухую погоду видимость может ухудшаться дымом, пылью или мглою.
  • Явления - указаны атмосферные явления, наблюдавшиеся в срок или в последний час перед сроком; фигурными скобками обозначены явления, наблюдавшиеся между сроками (за 1-3 часа до срока); квадратными скобками обозначены град или гололедные отложения с указанием их диаметра в мм.
  • Облачность - указаны через наклонную черту общая и нижняя облачность в баллах и высота нижней границы облаков в метрах; квадратными скобками обозначены формы облаков: Ci - перистые, Cs - перисто-слоистые, Cc - перисто-кучевые, Ac - высококучевые, As - высокослоистые, Sc - слоисто-кучевые, Ns - слоисто-дождевые, Cu - кучевые, Cb - кучево-дождевые. Подробнее классификацию облаков см. в Атласе облаков (PDF).
  • T - Температура воздуха - температура, измеренная на высоте 2 м над землей.
  • Td - Температура точки росы - температура, при понижении до которой содержащийся в воздухе водяной пар достигнет насыщения.
  • f - Относительная влажность воздуха - влажноcть воздуха, измеренная на высоте 2 м над землей.
  • Te - Эффективная температура - температура, которую ощущает одетый по сезону человек в тени. Характеристика душности погоды. При расчете учитывается влияние влажности воздуха и скорости ветра на теплоощущения человека.
  • Tes - Эффективная температура на солнце - температура, которую ощущает человек, с поправкой на солнечный нагрев. Характеристика знойности погоды. Зависит от высоты солнца над горизонтом, облачности и скорости ветра. Ночью, в пасмурную погоду, а также при ветре 12 м/с и более поправка равна нулю.
  • P - Атмосферное давление - приведенное к уровню моря атмосферное давление.
  • Po - Атмосферное давление - измеренное на уровне метеостанции атмосферное давление.
  • Tmin - Минимальная температура - минимум температуры воздуха на высоте 2 м над землей.
  • Tmax - Максимальная температура - максимум температуры воздуха на высоте 2 м над землей.
  • R - Количество осадков - Количество выпавших осадков за период времени, мм. При наведении курсора мыши на число - период времени, за который выпало указанное количество осадков.
  • R24 - Количество осадков - Количество выпавших осадков за 24 часа, мм.
  • S - Снежный покров - Высота снежного покрова, см. При наведении курсора мыши на число - состояние снежного покрова и степень покрытия местности в баллах.